| time (UTC) | temp C | wind direction | speed KPH | gust KPH | rain 1hr cm | rain 24hr cm | rain mn cm | humidity % | barometer mb |
| 20260502200013 | 14 | 302 | 0.0 | 1.6 | 0.00 | 0.00 | 0.00 | 58 | 1021.4 |
| 20260502194551 | 15 | 302 | 0.0 | 1.6 | 0.00 | 0.00 | 0.00 | 56 | 1021.2 |
| 20260502193013 | 15 | 302 | 1.6 | 1.6 | 0.00 | 0.00 | 0.00 | 54 | 1021.1 |
| 20260502191547 | 16 | 297 | 0.0 | 3.2 | 0.00 | 0.00 | 0.00 | 53 | 1021.0 |
| 20260502190016 | 16 | 296 | 1.6 | 1.6 | 0.00 | 0.00 | 0.00 | 50 | 1020.9 |
| 20260502184555 | 17 | 296 | 1.6 | 4.8 | 0.00 | 0.00 | 0.00 | 49 | 1020.8 |
| 20260502183026 | 18 | 275 | 0.0 | 3.2 | 0.00 | 0.00 | 0.00 | 47 | 1020.6 |
| 20260502181545 | 18 | 250 | 1.6 | 8.0 | 0.00 | 0.00 | 0.00 | 43 | 1020.5 |
| 20260502163038 | 22 | 167 | 4.8 | 11.3 | 0.00 | 0.00 | 0.00 | 37 | 1020.3 |
| 20260502161602 | 22 | 174 | 6.4 | 11.3 | 0.00 | 0.00 | 0.00 | 37 | 1020.5 |
| 20260502151517 | 22 | 146 | 4.8 | 12.9 | 0.00 | 0.00 | 0.00 | 38 | 1020.9 |
| 20260502123030 | 21 | 282 | 1.6 | 9.7 | 0.00 | 0.00 | 0.00 | 36 | 1022.7 |
| 20260502121515 | 21 | 218 | 4.8 | 11.3 | 0.00 | 0.00 | 0.00 | 38 | 1023.0 |
| 20260502120157 | 21 | 212 | 1.6 | 8.0 | 0.00 | 0.00 | 0.00 | 39 | 1023.2 |
| 20260502114549 | 21 | 238 | 3.2 | 9.7 | 0.00 | 0.00 | 0.00 | 37 | 1023.4 |
| 20260502113017 | 20 | 306 | 1.6 | 12.9 | 0.00 | 0.00 | 0.00 | 38 | 1023.7 |
| 20260502111601 | 20 | 313 | 1.6 | 9.7 | 0.00 | 0.00 | 0.00 | 42 | 1023.9 |
| 20260502110040 | 19 | 303 | 6.4 | 12.9 | 0.00 | 0.00 | 0.00 | 41 | 1024.1 |
| 20260502104526 | 19 | 184 | 1.6 | 8.0 | 0.00 | 0.00 | 0.00 | 43 | 1024.4 |
| 20260502103005 | 18 | 319 | 1.6 | 8.0 | 0.00 | 0.00 | 0.00 | 44 | 1024.6 |
| 20260502101623 | 18 | 219 | 1.6 | 8.0 | 0.00 | 0.00 | 0.00 | 44 | 1024.8 |
| 20260502091506 | 16 | 270 | 1.6 | 6.4 | 0.00 | 0.00 | 0.00 | 51 | 1025.5 |
| 20260502090109 | 16 | 98 | 0.0 | 6.4 | 0.00 | 0.00 | 0.00 | 52 | 1025.8 |
| 20260502080108 | 13 | 189 | 3.2 | 6.4 | 0.00 | 0.00 | 0.00 | 60 | 1026.4 |
| 20260502071513 | 12 | 118 | 1.6 | 4.8 | 0.00 | 0.00 | 0.00 | 66 | 1026.9 |
| 20260502070125 | 12 | 262 | 1.6 | 4.8 | 0.00 | 0.00 | 0.00 | 67 | 1027.0 |
| 20260502064548 | 11 | 116 | 0.0 | 3.2 | 0.00 | 0.00 | 0.00 | 69 | 1027.2 |
| 20260502063028 | 10 | 105 | 1.6 | 4.8 | 0.00 | 0.00 | 0.00 | 70 | 1027.2 |
| 20260502061507 | 10 | 126 | 0.0 | 3.2 | 0.00 | 0.00 | 0.00 | 72 | 1027.3 |
| 20260502060050 | 10 | 141 | 1.6 | 3.2 | 0.00 | 0.00 | 0.00 | 70 | 1027.4 |
| 20260502054530 | 10 | 134 | 0.0 | 4.8 | 0.00 | 0.00 | 0.00 | 71 | 1027.4 |
| 20260502053006 | 10 | 96 | 0.0 | 1.6 | 0.00 | 0.00 | 0.00 | 71 | 1027.5 |
| 20260502051603 | 8 | 341 | 0.0 | 1.6 | 0.00 | 0.00 | 0.00 | 75 | 1027.4 |
| 20260502050020 | 8 | 341 | 0.0 | 0.0 | 0.00 | 0.00 | 0.00 | 76 | 1027.4 |
| 20260502044554 | 7 | 342 | 0.0 | 0.0 | 0.00 | 0.00 | 0.00 | 79 | 1027.3 |
| 20260502043032 | 6 | 341 | 0.0 | 1.6 | 0.00 | 0.00 | 0.00 | 80 | 1027.2 |
| 20260502041502 | 6 | 342 | 0.0 | 1.6 | 0.00 | 0.00 | 0.00 | 80 | 1027.2 |
| 20260502040041 | 6 | 342 | 0.0 | 1.6 | 0.00 | 0.00 | 0.00 | 81 | 1027.2 |
| 20260502034524 | 6 | 341 | 0.0 | 1.6 | 0.00 | 0.00 | 0.00 | 82 | 1027.1 |
| 20260502033058 | 6 | 338 | 0.0 | 1.6 | 0.00 | 0.00 | 0.00 | 81 | 1027.1 |
| 20260502031530 | 6 | 338 | 0.0 | 1.6 | 0.00 | 0.00 | 0.00 | 81 | 1027.1 |
| 20260502030004 | 6 | 359 | 0.0 | 1.6 | 0.00 | 0.00 | 0.00 | 81 | 1027.2 |
| 20260502024539 | 6 | 335 | 0.0 | 3.2 | 0.00 | 0.00 | 0.00 | 81 | 1027.2 |
| 20260502023010 | 6 | 318 | 0.0 | 1.6 | 0.00 | 0.00 | 0.00 | 79 | 1027.2 |
| 20260502021549 | 6 | 326 | 0.0 | 1.6 | 0.00 | 0.00 | 0.00 | 79 | 1027.2 |
| 20260502020024 | 7 | 326 | 0.0 | 0.0 | 0.00 | 0.00 | 0.00 | 76 | 1027.2 |
| 20260502014559 | 7 | 326 | 0.0 | 1.6 | 0.00 | 0.00 | 0.00 | 76 | 1027.1 |
| 20260502013053 | 7 | 326 | 0.0 | 1.6 | 0.00 | 0.00 | 0.00 | 76 | 1027.2 |
| 20260502011520 | 7 | 326 | 0.0 | 1.6 | 0.00 | 0.00 | 0.00 | 76 | 1027.1 |
| 20260502010042 | 7 | 326 | 0.0 | 0.0 | 0.00 | 0.00 | 0.00 | 74 | 1027.1 |
| 20260502004516 | 8 | 326 | 1.6 | 3.2 | 0.00 | 0.00 | 0.00 | 71 | 1027.1 |
| 20260502003056 | 8 | 319 | 0.0 | 1.6 | 0.00 | 0.00 | 0.00 | 71 | 1027.1 |
| 20260502001526 | 8 | 319 | 1.6 | 3.2 | 0.00 | 0.00 | 0.00 | 73 | 1027.2 |
| 20260502000105 | 8 | 298 | 0.0 | 3.2 | 0.00 | 0.00 | 0.00 | 73 | 1027.3 |
| 20260501234530 | 8 | 294 | 0.0 | 1.6 | 0.00 | 0.00 | 0.00 | 70 | 1027.3 |
| 20260501233104 | 8 | 294 | 0.0 | 1.6 | 0.00 | 0.00 | 0.00 | 71 | 1027.2 |
| 20260501231534 | 8 | 360 | 0.0 | 3.2 | 0.00 | 0.00 | 0.00 | 69 | 1027.2 |
| 20260501230006 | 9 | 74 | 0.0 | 1.6 | 0.00 | 0.00 | 0.00 | 67 | 1027.1 |
| 20260501224531 | 10 | 112 | 0.0 | 4.8 | 0.00 | 0.00 | 0.00 | 65 | 1027.0 |
| 20260501223102 | 10 | 359 | 1.6 | 4.8 | 0.00 | 0.00 | 0.00 | 63 | 1026.9 |
| 20260501221532 | 10 | 61 | 1.6 | 4.8 | 0.00 | 0.00 | 0.00 | 62 | 1026.9 |
| 20260501220002 | 9 | 340 | 1.6 | 4.8 | 0.00 | 0.00 | 0.00 | 62 | 1026.8 |
| 20260501214537 | 10 | 359 | 0.0 | 3.2 | 0.00 | 0.00 | 0.00 | 61 | 1026.7 |
| 20260501213103 | 10 | 331 | 0.0 | 1.6 | 0.00 | 0.00 | 0.00 | 61 | 1026.6 |
| 20260501211530 | 10 | 331 | 0.0 | 1.6 | 0.00 | 0.00 | 0.00 | 61 | 1026.4 |
| 20260501210120 | 10 | 331 | 0.0 | 1.6 | 0.00 | 0.00 | 0.00 | 59 | 1026.3 |
| 20260501204539 | 10 | 331 | 0.0 | 1.6 | 0.00 | 0.00 | 0.00 | 57 | 1026.2 |
| 20260501203006 | 11 | 331 | 0.0 | 1.6 | 0.00 | 0.00 | 0.00 | 56 | 1026.1 |
| 20260501201540 | 11 | 331 | 0.0 | 1.6 | 0.00 | 0.00 | 0.00 | 57 | 1025.9 |